Regional Weather Roundup
Issued by NWS Little Rock, AR

Home | Current Version | Previous Version | Text Only | Print | Product List | Glossary Off
Versions: 1 2 3 4 5 6 7 8 9 10 11 12 13 14 15 16 17 18 19 20 21 22 23 24 25 26 27 28 29 30 31 32 33 34 35 36 37 38 39 40 41 42 43 44 45 46 47 48 49 50

000
ASUS44 KLZK 210605
RWRLZK

WEATHER ROUNDUP FOR ARKANSAS
NATIONAL WEATHER SERVICE LITTLE ROCK AR
1200 AM CST TUE FEB 21 2017

NOTE: "FAIR" INDICATES FEW OR NO CLOUDS BELOW 12,000 FEET WITH NO
SIGNIFICANT WEATHER AND/OR OBSTRUCTIONS TO VISIBILITY.

ARZ001-003-010-029-210700-
NORTHWEST ARKANSAS

CITY           SKY/WX    TMP DP  RH WIND       PRES   REMARKS
FAYETTEVILLE   CLOUDY    55  55 100 N3        29.92F
6HR MIN TEMP:  55; 6HR MAX TEMP:  60; 6HR PCP:  0.01;

FORT SMITH     CLOUDY    57  56  96 SW3       29.91F FOG
6HR MIN TEMP:  57; 6HR MAX TEMP:  63; 6HR PCP:  0.02;

HARRISON       RAIN      57  57 100 W3        29.95R FOG
6HR MIN TEMP:  57; 6HR MAX TEMP:  65; 6HR PCP:  0.22;

BENTONVILLE    CLOUDY    55  54  94 CALM      29.96R
6HR MIN TEMP:  55; 6HR MAX TEMP:  61;

ROGERS         CLOUDY    56  54  93 W3        29.95R
6HR MIN TEMP:  56; 6HR MAX TEMP:  60; 6HR PCP: TRACE;

SILOAM SPGS    CLOUDY    55  52  88 CALM      29.93S
6HR MIN TEMP:  54; 6HR MAX TEMP:  61;

HIGHFILL       CLOUDY    55  55 100 CALM      29.94R
6HR MIN TEMP:  55; 6HR MAX TEMP:  61; 6HR PCP: TRACE;

$$

ARZ004-005-016-210700-
NORTH CENTRAL ARKANSAS

CITY           SKY/WX    TMP DP  RH WIND       PRES   REMARKS
BATESVILLE     CLOUDY    63  59  88 NW7       29.90F
6HR MIN TEMP:  63; 6HR MAX TEMP:  73; 6HR PCP:  0.31;

FLIPPIN        CLOUDY    59  54  82 NE3       29.91F
6HR MIN TEMP:  59; 6HR MAX TEMP:  68; 6HR PCP:  0.19;

MTN HOME       RAIN      58  57  97 E3        29.93R
6HR MIN TEMP:  58; 6HR MAX TEMP:  71; 6HR PCP:  0.18;

$$

ARZ040-041-210700-
WEST CENTRAL ARKANSAS

CITY           SKY/WX    TMP DP  RH WIND       PRES   REMARKS
MENA           CLOUDY    59  57  94 CALM      29.91F
MOUNT IDA      CLOUDY    58  57  97 CALM      29.88S
6HR MIN TEMP:  58; 6HR MAX TEMP:  63; 6HR PCP:  0.37;

$$

ARZ009-017-025-026-028-210700-
NORTHEAST ARKANSAS

CITY           SKY/WX    TMP DP  RH WIND       PRES   REMARKS
CORNING        CLOUDY    63  55  77 W3        29.91F
JONESBORO      LGT RAIN  63  56  78 W7        29.92R
6HR MIN TEMP:  60; 6HR MAX TEMP:  70; 6HR PCP:  0.02;

NEWPORT        LGT RAIN  61  60  97 N8        29.89F
6HR MIN TEMP:  61; 6HR MAX TEMP:  70;

WALNUT RIDGE   CLOUDY    64  52  63 W5        29.92R
6HR MIN TEMP:  63; 6HR MAX TEMP:  70;

BLYTHEVILLE    MOCLDY    66  51  58 SE9       29.92R
6HR MIN TEMP:  65; 6HR MAX TEMP:  70;

$$

ARZ022-023-033-042-044-210700-
CENTRAL ARKANSAS

CITY           SKY/WX    TMP DP  RH WIND       PRES   REMARKS
LITTLE ROCK    RAIN      59  59 100 W7        29.90F FOG
6HR MIN TEMP:  58; 6HR MAX TEMP:  65; 6HR PCP:  1.01;

N LITTLE ROCK    N/A     58  57  95 N5        29.90F
6HR MIN TEMP:  59; 6HR MAX TEMP:  66;

JACKSONVILLE   LGT RAIN  60  60  99 NW3       29.89R FOG
6HR MIN TEMP:  60; 6HR MAX TEMP:  65; 6HR PCP:  1.19;

SEARCY         RAIN      62  61  96 NW3       29.90F
6HR MIN TEMP:  62; 6HR MAX TEMP:  66; 6HR PCP:  0.34;

HOT SPRINGS    LGT RAIN  59  59 100 NE6       29.89F
6HR MIN TEMP:  59; 6HR MAX TEMP:  68; 6HR PCP:  0.20;

RUSSELLVILLE   LGT RAIN  59  58  96 W6        29.92F
6HR MIN TEMP:  59; 6HR MAX TEMP:  69; 6HR PCP:  0.31;

CLINTON        LGT RAIN  61  61 100 CALM      29.90F VSB 3/4
$$

ARZ036-210700-
EAST ARKANSAS

CITY           SKY/WX    TMP DP  RH WIND       PRES   REMARKS
WEST MEMPHIS   CLOUDY    68  52  56 SE12      29.86F
6HR MIN TEMP:  63; 6HR MAX TEMP:  70; 6HR PCP: TRACE;

$$

ARZ050-053-066-070-073-210700-
SOUTHWEST ARKANSAS

CITY           SKY/WX    TMP DP  RH WIND       PRES   REMARKS
ARKADELPHIA    LGT RAIN  59  58  96 W3        29.92R
6HR MIN TEMP:  59; 6HR MAX TEMP:  63; 6HR PCP:  0.36;

CAMDEN         RAIN      57  55  94 CALM      29.89F
TEXARKANA      CLOUDY    57  57 100 CALM      29.91S
6HR MIN TEMP:  56; 6HR MAX TEMP:  59; 6HR PCP:  0.19;

EL DORADO      LGT RAIN  58  58 100 SW7       29.92F FOG
6HR MIN TEMP:  58; 6HR MAX TEMP:  61; 6HR PCP:  0.41;

DE QUEEN       FOG       57  57 100 CALM      29.92R VSB 1/2
6HR MIN TEMP:  56; 6HR MAX TEMP:  61; 6HR PCP:  0.08;

$$

ARZ056-057-069-210700-
SOUTHEAST ARKANSAS

CITY           SKY/WX    TMP DP  RH WIND       PRES   REMARKS
PINE BLUFF     LGT RAIN  59  58  96 W5        29.91R
6HR MIN TEMP:  59; 6HR MAX TEMP:  69; 6HR PCP:  1.28;

STUTTGART      CLOUDY    61  54  77 W12       29.90S
6HR MIN TEMP:  61; 6HR MAX TEMP:  72; 6HR PCP:  0.41;

MONTICELLO     LGT RAIN  59  57  93 NW5       29.93S
6HR MIN TEMP:  59; 6HR MAX TEMP:  74; 6HR PCP:  1.38;


$$





USA.gov is the U.S. government's official web portal to all federal, state and local government web resources and services.